TimeEDT,TemperatureF,Dew PointF,Humidity,Sea Level PressureIn,VisibilityMPH,Wind Direction,Wind SpeedMPH,Gust SpeedMPH,PrecipitationIn,Events,Conditions,WindDirDegrees,DateUTC
12:00 AM,48.2,42.8,82,30.06,9.0,East,3.5,-,N/A,,Overcast,80,2012-10-29 04:00:00
1:00 AM,46.4,42.8,87,30.04,9.0,ESE,5.8,-,N/A,,Overcast,120,2012-10-29 05:00:00
2:00 AM,46.4,42.8,87,30.03,9.0,SE,4.6,-,N/A,,Overcast,140,2012-10-29 06:00:00
3:00 AM,46.4,42.8,87,30.00,9.0,SE,3.5,-,N/A,,Overcast,140,2012-10-29 07:00:00
4:00 AM,46.4,44.6,93,29.97,9.0,SSE,4.6,-,N/A,,Overcast,150,2012-10-29 08:00:00
5:00 AM,48.2,44.6,87,29.96,9.0,SSE,3.5,-,N/A,,Overcast,160,2012-10-29 09:00:00
6:00 AM,51.8,46.4,82,29.95,9.0,East,5.8,-,N/A,,Overcast,100,2012-10-29 10:00:00
6:56 AM,53.6,48.2,82,29.93,9.0,East,11.5,19.6,N/A,,Overcast,80,2012-10-29 10:56:00
7:00 AM,53.6,48.2,82,29.94,9.0,ENE,11.5,19.6,N/A,,Overcast,70,2012-10-29 11:00:00
7:56 AM,55.4,48.2,77,29.95,9.0,ENE,15.0,23.0,N/A,,Overcast,70,2012-10-29 11:56:00
8:21 AM,55.4,48.2,77,29.95,9.0,ENE,11.5,-,N/A,,Overcast,70,2012-10-29 12:21:00
8:55 AM,55.4,48.2,77,29.94,9.0,ENE,11.5,18.4,N/A,,Overcast,70,2012-10-29 12:55:00
9:00 AM,55.4,48.2,77,29.96,9.0,East,11.5,20.7,N/A,,Overcast,80,2012-10-29 13:00:00
10:00 AM,55.4,48.2,77,29.95,9.0,ENE,13.8,24.2,N/A,,Overcast,70,2012-10-29 14:00:00
11:00 AM,57.2,48.2,72,29.94,9.0,East,9.2,20.7,N/A,,Overcast,80,2012-10-29 15:00:00
11:24 AM,57.2,50.0,77,29.91,9.0,ENE,11.5,20.7,N/A,,Overcast,70,2012-10-29 15:24:00
11:39 AM,59.0,50.0,72,29.91,9.0,ENE,11.5,29.9,N/A,,Overcast,70,2012-10-29 15:39:00
12:00 PM,59.0,48.2,67,29.91,9.0,East,18.4,29.9,N/A,,Overcast,80,2012-10-29 16:00:00
1:00 PM,59.0,48.2,67,29.91,9.0,East,16.1,29.9,N/A,,Mostly Cloudy,80,2012-10-29 17:00:00
1:37 PM,60.8,48.2,63,29.88,9.0,East,13.8,32.2,N/A,,Mostly Cloudy,80,2012-10-29 17:37:00
2:00 PM,59.0,48.2,67,29.90,9.0,ENE,15.0,29.9,N/A,,Mostly Cloudy,70,2012-10-29 18:00:00
3:00 PM,60.8,48.2,63,29.88,9.0,East,18.4,31.1,N/A,,Overcast,80,2012-10-29 19:00:00
4:00 PM,59.0,48.2,67,29.88,9.0,ENE,15.0,27.6,N/A,,Overcast,60,2012-10-29 20:00:00
5:00 PM,59.0,50.0,72,29.87,9.0,East,11.5,23.0,N/A,,Overcast,80,2012-10-29 21:00:00
5:45 PM,59.0,50.0,72,29.84,9.0,ENE,21.9,32.2,N/A,,Overcast,70,2012-10-29 21:45:00
6:00 PM,59.0,50.0,72,29.85,9.0,ENE,10.4,23.0,N/A,,Overcast,70,2012-10-29 22:00:00
7:00 PM,59.0,50.0,72,29.84,9.0,ENE,19.6,29.9,N/A,,Overcast,70,2012-10-29 23:00:00
8:00 PM,59.0,50.0,72,29.81,9.0,East,17.3,38.0,N/A,,Overcast,80,2012-10-30 00:00:00
9:00 PM,59.0,48.2,67,29.79,9.0,East,16.1,36.8,N/A,,Scattered Clouds,80,2012-10-30 01:00:00
9:53 PM,59.0,48.2,67,29.78,9.0,East,23.0,43.7,N/A,,Overcast,80,2012-10-30 01:53:00
10:00 PM,59.0,48.2,67,29.79,9.0,ENE,23.0,36.8,N/A,,Overcast,70,2012-10-30 02:00:00
11:00 PM,57.2,48.2,72,29.78,9.0,ENE,19.6,39.1,N/A,,Overcast,70,2012-10-30 03:00:00
11:09 PM,57.2,48.2,72,29.77,9.0,ENE,17.3,34.5,N/A,,Overcast,70,2012-10-30 03:09:00
11:30 PM,57.2,48.2,72,29.76,9.0,East,18.4,32.2,N/A,,Overcast,80,2012-10-30 03:30:00
11:59 PM,57.2,48.2,72,29.75,9.0,ENE,15.0,35.7,N/A,,Overcast,70,2012-10-30 03:59:00